Location: Quedlinburg
(51.7921°N, 11.1414°E)
Time: 21:46:10
(UTC+01:00)

CUBESAT XI-V - Visible Passes

Search period start: 16 March 2026 00:00
Search period end: 26 March 2026 00:00
Orbit: 643 x 664 km, 98.3° (Epoch: 15 March)

Date Brightness Start Highest point End Pass type
(mag) Time Alt. Az. Time Alt. Az. Time Alt. Az.
16 Mar ? 02:08:40 22° NE 02:08:40 22° NE 02:11:02 10° N visible
16 Mar ? 03:46:30 22° NW 03:46:30 22° NW 03:48:15 10° NNW visible
17 Mar ? 02:36:21 30° NNE 02:36:21 30° NNE 02:39:00 10° N visible
17 Mar ? 04:14:12 17° NW 04:14:12 17° NW 04:15:32 10° NW visible
18 Mar ? 01:26:12 13° NE 01:26:17 13° NE 01:28:16 10° NNE visible
18 Mar ? 03:04:03 36° N 03:04:03 36° N 03:06:46 10° NNW visible
18 Mar ? 04:41:53 12° NW 04:41:53 12° NW 04:42:23 10° NW visible
19 Mar ? 01:53:53 20° NE 01:53:53 20° NE 01:56:48 10° NNE visible
19 Mar ? 03:31:44 34° NNW 03:31:44 34° NNW 03:34:22 10° NNW visible
20 Mar ? 02:21:35 30° NE 02:21:35 30° NE 02:24:52 10° N visible
20 Mar ? 03:59:25 26° NW 03:59:25 26° NW 04:01:45 10° NNW visible
21 Mar ? 02:49:15 45° NNE 02:49:15 45° NNE 02:52:43 10° N visible
21 Mar ? 04:27:06 18° WNW 04:27:06 18° WNW 04:28:52 10° NW visible
22 Mar ? 01:39:05 15° ENE 01:39:44 16° NE 01:42:25 10° NNE visible
22 Mar ? 03:16:55 53° NNW 03:16:55 53° NNW 03:20:23 10° NNW visible
22 Mar ? 04:54:46 11° WNW 04:54:46 11° WNW 04:55:15 10° WNW visible
23 Mar ? 02:06:44 25° ENE 02:07:01 25° ENE 02:10:39 10° N visible
23 Mar ? 03:44:35 40° WNW 03:44:35 40° WNW 03:47:54 10° NNW visible
24 Mar ? 02:34:24 40° ENE 02:34:24 40° ENE 02:38:36 10° N visible
24 Mar ? 04:12:15 26° WNW 04:12:15 26° WNW 04:15:10 10° NW visible
25 Mar ? 01:24:13 10° ENE 01:25:54 12° NE 01:27:46 10° NNE visible
25 Mar ? 03:02:04 69° NE 03:02:04 69° NE 03:06:21 10° N visible
25 Mar ? 04:39:54 16° WNW 04:39:54 16° WNW 04:42:01 10° NW visible
